Precipitable_Water
0.72 0.70 0.67 0.63 0.61 0.59 0.57 0.55 0.55 0.55 0.57 0.57 0.58 0.57 0.57 0.57 0.58 0.58 0.58 0.59 0.56 0.55 0.55 0.55 0.54 0.52 0.51 0.51 0.51 0.53 0.55 0.54 0.51 0.53 0.56 0.36 0.35 0.36 0.37 0.35 0.36 0.40 0.40 0.37 0.43 0.45 0.47 0.45 0.37 0.34 0.28 0.27 0.23 0.18 0.20 0.21 0.21 0.20 0.17 0.16 0.13 0.13 0.13 0.14 0.14 0.15 0.16 0.18 0.21 0.24 0.23 0.19 0.20 0.24 0.24 0.25 0.23 0.22 0.22 0.21 0.21 0.19 0.24 0.22 0.26 0.32 0.31 0.39
0.72 0.69 0.66 0.63 0.61 0.58 0.56 0.56 0.56 0.56 0.57 0.58 0.58 0.58 0.57 0.57 0.57 0.57 0.57 0.56 0.54 0.54 0.55 0.54 0.53 0.51 0.50 0.52 0.55 0.58 0.58 0.55 0.46 0.44 0.37 0.39 0.39 0.35 0.33 0.35 0.35 0.36 0.37 0.39 0.43 0.48 0.40 0.35 0.39 0.37 0.30 0.26 0.29 0.22 0.22 0.17 0.20 0.17 0.17 0.16 0.13 0.14 0.15 0.18 0.19 0.18 0.18 0.18 0.22 0.26 0.24 0.22 0.21 0.23 0.24 0.21 0.21 0.22 0.21 0.20 0.21 0.21 0.23 0.24 0.24 0.25 0.25 0.30
0.71 0.68 0.64 0.62 0.60 0.58 0.56 0.55 0.55 0.56 0.57 0.57 0.57 0.57 0.58 0.57 0.56 0.56 0.56 0.54 0.54 0.55 0.55 0.54 0.53 0.51 0.52 0.57 0.62 0.64 0.66 0.59 0.58 0.45 0.37 0.42 0.37 0.36 0.34 0.33 0.34 0.34 0.32 0.35 0.44 0.34 0.30 0.31 0.35 0.36 0.34 0.26 0.27 0.23 0.23 0.20 0.18 0.18 0.16 0.15 0.16 0.18 0.18 0.18 0.17 0.18 0.21 0.20 0.21 0.23 0.23 0.22 0.24 0.23 0.24 0.20 0.21 0.21 0.19 0.20 0.20 0.19 0.20 0.22 0.22 0.24 0.26 0.27
0.70 0.66 0.63 0.60 0.58 0.56 0.54 0.53 0.54 0.57 0.57 0.57 0.57 0.58 0.57 0.57 0.57 0.57 0.55 0.53 0.54 0.55 0.56 0.55 0.53 0.52 0.55 0.60 0.64 0.67 0.63 0.52 0.38 0.43 0.43 0.42 0.37 0.36 0.35 0.35 0.35 0.39 0.47 0.47 0.50 0.33 0.27 0.28 0.28 0.26 0.25 0.24 0.24 0.24 0.23 0.23 0.17 0.20 0.18 0.15 0.15 0.18 0.18 0.18 0.18 0.18 0.20 0.23 0.22 0.23 0.22 0.22 0.23 0.24 0.24 0.22 0.19 0.19 0.20 0.20 0.18 0.18 0.19 0.18 0.18 0.21 0.25 0.24
0.69 0.64 0.61 0.58 0.56 0.54 0.52 0.53 0.54 0.56 0.57 0.56 0.57 0.58 0.57 0.57 0.57 0.57 0.54 0.53 0.54 0.55 0.55 0.55 0.54 0.50 0.55 0.60 0.62 0.64 0.57 0.43 0.37 0.45 0.42 0.42 0.42 0.38 0.36 0.35 0.37 0.39 0.47 0.51 0.43 0.36 0.33 0.25 0.27 0.24 0.21 0.19 0.20 0.23 0.24 0.24 0.22 0.20 0.19 0.20 0.18 0.17 0.16 0.18 0.18 0.20 0.18 0.21 0.22 0.23 0.21 0.22 0.26 0.24 0.23 0.22 0.19 0.18 0.19 0.20 0.20 0.18 0.19 0.20 0.20 0.20 0.23 0.38
0.67 0.63 0.60 0.57 0.54 0.53 0.53 0.54 0.55 0.56 0.56 0.57 0.57 0.57 0.57 0.56 0.56 0.56 0.54 0.53 0.54 0.54 0.55 0.55 0.56 0.54 0.55 0.59 0.58 0.54 0.49 0.19 0.39 0.40 0.46 0.44 0.43 0.41 0.39 0.37 0.41 0.44 0.46 0.46 0.39 0.32 0.32 0.33 0.27 0.23 0.23 0.18 0.16 0.16 0.23 0.26 0.27 0.19 0.21 0.18 0.19 0.19 0.18 0.19 0.19 0.19 0.21 0.23 0.23 0.22 0.24 0.24 0.24 0.23 0.23 0.22 0.20 0.21 0.23 0.21 0.20 0.20 0.18 0.24 0.29 0.29 0.30 0.34
0.67 0.63 0.60 0.58 0.55 0.54 0.53 0.53 0.55 0.56 0.57 0.57 0.57 0.57 0.56 0.55 0.55 0.54 0.52 0.53 0.54 0.54 0.54 0.56 0.57 0.60 0.60 0.60 0.60 0.59 0.48 0.36 0.44 0.45 0.45 0.47 0.43 0.44 0.43 0.44 0.43 0.44 0.42 0.38 0.33 0.33 0.35 0.30 0.28 0.26 0.26 0.26 0.26 0.23 0.20 0.24 0.26 0.24 0.21 0.21 0.19 0.20 0.18 0.17 0.16 0.19 0.20 0.21 0.22 0.23 0.24 0.23 0.22 0.20 0.23 0.20 0.21 0.21 0.22 0.21 0.21 0.21 0.23 0.22 0.27 0.29 0.31 0.32
0.68 0.63 0.61 0.59 0.56 0.55 0.53 0.54 0.55 0.56 0.57 0.58 0.57 0.57 0.56 0.54 0.54 0.54 0.51 0.51 0.54 0.53 0.54 0.56 0.59 0.60 0.63 0.59 0.52 0.50 0.56 0.39 0.51 0.49 0.46 0.51 0.47 0.47 0.51 0.55 0.47 0.46 0.38 0.31 0.27 0.28 0.26 0.27 0.29 0.27 0.21 0.19 0.23 0.25 0.24 0.21 0.23 0.21 0.22 0.22 0.21 0.20 0.19 0.19 0.19 0.20 0.21 0.21 0.22 0.22 0.20 0.20 0.21 0.21 0.21 0.20 0.21 0.21 0.20 0.20 0.19 0.20 0.21 0.21 0.24 0.34 0.34 0.36
0.69 0.64 0.61 0.59 0.56 0.55 0.54 0.55 0.56 0.57 0.58 0.58 0.58 0.57 0.55 0.55 0.54 0.53 0.51 0.52 0.53 0.54 0.54 0.56 0.58 0.61 0.66 0.59 0.50 0.52 0.37 0.45 0.49 0.55 0.54 0.53 0.56 0.58 0.58 0.55 0.60 0.44 0.37 0.39 0.35 0.30 0.31 0.31 0.32 0.29 0.24 0.21 0.26 0.24 0.27 0.23 0.18 0.18 0.21 0.22 0.20 0.18 0.17 0.18 0.18 0.21 0.21 0.21 0.20 0.19 0.18 0.17 0.17 0.20 0.18 0.18 0.19 0.20 0.20 0.19 0.19 0.19 0.18 0.20 0.21 0.23 0.27 0.33
0.69 0.64 0.62 0.59 0.58 0.56 0.55 0.55 0.56 0.58 0.58 0.59 0.58 0.55 0.54 0.54 0.54 0.52 0.50 0.52 0.53 0.54 0.55 0.57 0.59 0.63 0.61 0.59 0.60 0.47 0.42 0.47 0.53 0.55 0.66 0.53 0.59 0.58 0.58 0.54 0.50 0.45 0.41 0.40 0.36 0.38 0.34 0.31 0.27 0.31 0.28 0.21 0.23 0.23 0.22 0.19 0.18 0.23 0.22 0.23 0.23 0.23 0.23 0.22 0.20 0.20 0.20 0.18 0.18 0.15 0.15 0.15 0.15 0.14 0.11 0.13 0.14 0.15 0.15 0.16 0.17 0.18 0.17 0.17 0.19 0.21 0.23 0.24
0.70 0.65 0.62 0.60 0.57 0.56 0.56 0.55 0.56 0.57 0.59 0.58 0.56 0.54 0.54 0.54 0.52 0.51 0.50 0.51 0.53 0.54 0.55 0.55 0.60 0.57 0.49 0.62 0.47 0.30 0.40 0.42 0.48 0.49 0.53 0.53 0.50 0.51 0.52 0.54 0.55 0.49 0.45 0.44 0.41 0.43 0.39 0.38 0.38 0.34 0.30 0.29 0.30 0.24 0.22 0.25 0.26 0.22 0.21 0.22 0.21 0.21 0.21 0.20 0.19 0.17 0.18 0.17 0.18 0.17 0.16 0.17 0.17 0.17 0.13 0.13 0.14 0.15 0.15 0.15 0.15 0.16 0.16 0.16 0.17 0.18 0.20 0.22
0.70 0.65 0.62 0.59 0.57 0.57 0.55 0.56 0.56 0.57 0.58 0.57 0.55 0.53 0.54 0.53 0.51 0.50 0.51 0.52 0.52 0.53 0.55 0.54 0.58 0.64 0.64 0.56 0.47 0.29 0.43 0.43 0.47 0.48 0.50 0.52 0.52 0.56 0.58 0.56 0.53 0.49 0.46 0.42 0.44 0.44 0.39 0.42 0.39 0.36 0.29 0.37 0.28 0.31 0.28 0.32 0.30 0.29 0.27 0.22 0.23 0.23 0.20 0.19 0.17 0.17 0.18 0.16 0.17 0.18 0.16 0.15 0.15 0.13 0.13 0.12 0.13 0.15 0.16 0.16 0.16 0.16 0.15 0.15 0.16 0.17 0.18 0.19
0.71 0.65 0.62 0.59 0.58 0.57 0.57 0.56 0.57 0.57 0.57 0.57 0.55 0.52 0.53 0.52 0.51 0.50 0.53 0.51 0.53 0.55 0.55 0.57 0.55 0.63 0.59 0.51 0.37 0.46 0.48 0.44 0.47 0.52 0.53 0.59 0.55 0.56 0.55 0.57 0.52 0.54 0.51 0.46 0.46 0.46 0.47 0.45 0.43 0.36 0.40 0.37 0.34 0.28 0.35 0.35 0.33 0.32 0.29 0.23 0.21 0.20 0.17 0.19 0.21 0.22 0.22 0.21 0.21 0.20 0.12 0.11 0.13 0.15 0.15 0.15 0.15 0.16 0.15 0.13 0.14 0.16 0.17 0.16 0.15 0.16 0.17 0.18
0.71 0.66 0.62 0.60 0.59 0.58 0.58 0.58 0.59 0.58 0.57 0.56 0.55 0.52 0.52 0.51 0.52 0.51 0.52 0.54 0.53 0.53 0.54 0.55 0.58 0.57 0.60 0.51 0.44 0.50 0.49 0.54 0.53 0.53 0.50 0.50 0.45 0.49 0.53 0.54 0.56 0.55 0.56 0.51 0.49 0.51 0.50 0.49 0.45 0.41 0.43 0.36 0.33 0.43 0.36 0.35 0.34 0.28 0.28 0.27 0.23 0.21 0.19 0.24 0.26 0.28 0.26 0.27 0.27 0.25 0.14 0.12 0.15 0.17 0.17 0.16 0.18 0.18 0.16 0.16 0.16 0.14 0.15 0.17 0.18 0.16 0.16 0.17
0.71 0.67 0.62 0.61 0.59 0.59 0.59 0.60 0.59 0.58 0.57 0.57 0.54 0.52 0.52 0.50 0.52 0.53 0.53 0.53 0.55 0.55 0.53 0.56 0.61 0.53 0.52 0.54 0.53 0.54 0.54 0.56 0.49 0.46 0.48 0.49 0.45 0.46 0.48 0.51 0.48 0.53 0.47 0.53 0.53 0.54 0.50 0.47 0.44 0.39 0.35 0.43 0.42 0.37 0.33 0.34 0.35 0.34 0.29 0.24 0.26 0.25 0.25 0.28 0.33 0.31 0.25 0.29 0.31 0.27 0.19 0.16 0.19 0.19 0.18 0.17 0.18 0.15 0.18 0.18 0.18 0.17 0.15 0.15 0.17 0.18 0.18 0.17
0.72 0.68 0.63 0.61 0.60 0.59 0.59 0.59 0.58 0.58 0.58 0.57 0.54 0.52 0.52 0.53 0.52 0.53 0.54 0.55 0.59 0.60 0.59 0.48 0.57 0.60 0.48 0.45 0.43 0.57 0.54 0.39 0.39 0.43 0.48 0.50 0.53 0.44 0.48 0.46 0.49 0.42 0.50 0.56 0.56 0.53 0.48 0.42 0.41 0.41 0.40 0.42 0.37 0.35 0.33 0.34 0.32 0.33 0.30 0.28 0.31 0.34 0.32 0.30 0.36 0.38 0.33 0.30 0.30 0.28 0.21 0.21 0.19 0.21 0.22 0.22 0.20 0.19 0.17 0.17 0.20 0.19 0.17 0.16 0.16 0.17 0.18 0.18
0.73 0.70 0.63 0.61 0.60 0.60 0.60 0.59 0.57 0.58 0.58 0.57 0.54 0.53 0.54 0.55 0.56 0.56 0.54 0.56 0.59 0.66 0.61 0.42 0.47 0.61 0.43 0.47 0.48 0.41 0.37 0.39 0.42 0.39 0.45 0.50 0.53 0.47 0.48 0.49 0.48 0.48 0.52 0.52 0.52 0.54 0.55 0.44 0.46 0.45 0.45 0.40 0.42 0.40 0.32 0.29 0.29 0.30 0.36 0.33 0.34 0.31 0.32 0.30 0.35 0.34 0.33 0.32 0.29 0.30 0.24 0.22 0.23 0.23 0.23 0.23 0.23 0.21 0.15 0.19 0.21 0.21 0.19 0.19 0.18 0.17 0.16 0.17
0.74 0.71 0.65 0.61 0.60 0.60 0.60 0.59 0.57 0.58 0.59 0.57 0.52 0.52 0.56 0.61 0.65 0.63 0.55 0.53 0.61 0.65 0.69 0.60 0.53 0.48 0.45 0.43 0.31 0.31 0.36 0.34 0.38 0.42 0.45 0.53 0.51 0.46 0.47 0.46 0.47 0.50 0.49 0.47 0.53 0.47 0.49 0.43 0.47 0.39 0.40 0.41 0.41 0.37 0.31 0.26 0.30 0.29 0.33 0.32 0.31 0.34 0.32 0.30 0.28 0.33 0.41 0.43 0.37 0.32 0.29 0.27 0.28 0.30 0.29 0.27 0.26 0.24 0.22 0.21 0.22 0.21 0.21 0.21 0.20 0.19 0.18 0.18
0.75 0.72 0.66 0.62 0.60 0.60 0.61 0.60 0.56 0.58 0.59 0.58 0.54 0.61 0.70 0.70 0.65 0.65 0.53 0.53 0.50 0.51 0.48 0.35 0.30 0.23 0.18 0.29 0.34 0.37 0.33 0.40 0.46 0.48 0.46 0.47 0.47 0.47 0.48 0.46 0.44 0.45 0.40 0.39 0.43 0.43 0.46 0.43 0.44 0.40 0.35 0.38 0.38 0.38 0.34 0.35 0.33 0.28 0.27 0.24 0.23 0.22 0.24 0.25 0.30 0.37 0.39 0.38 0.34 0.32 0.28 0.29 0.30 0.32 0.33 0.32 0.31 0.26 0.25 0.24 0.24 0.26 0.24 0.22 0.20 0.19 0.18 0.17
0.75 0.72 0.68 0.63 0.61 0.60 0.60 0.60 0.57 0.57 0.60 0.59 0.60 0.65 0.66 0.59 0.50 0.50 0.52 0.53 0.49 0.29 0.24 0.32 0.28 0.30 0.33 0.33 0.31 0.38 0.39 0.46 0.43 0.46 0.46 0.53 0.43 0.44 0.45 0.46 0.42 0.40 0.41 0.38 0.40 0.45 0.43 0.35 0.33 0.34 0.36 0.40 0.42 0.41 0.38 0.37 0.35 0.31 0.29 0.27 0.25 0.25 0.25 0.28 0.31 0.33 0.34 0.31 0.31 0.32 0.30 0.30 0.33 0.32 0.32 0.32 0.34 0.33 0.31 0.29 0.26 0.24 0.27 0.26 0.22 0.21 0.19 0.19
0.76 0.73 0.69 0.65 0.63 0.61 0.60 0.59 0.57 0.55 0.61 0.60 0.59 0.54 0.36 0.30 0.33 0.39 0.44 0.44 0.43 0.34 0.27 0.30 0.30 0.32 0.32 0.32 0.34 0.35 0.32 0.39 0.46 0.44 0.45 0.50 0.39 0.41 0.39 0.35 0.36 0.36 0.37 0.37 0.36 0.43 0.44 0.36 0.38 0.43 0.43 0.43 0.41 0.41 0.40 0.37 0.36 0.33 0.31 0.30 0.28 0.28 0.26 0.29 0.30 0.33 0.34 0.30 0.28 0.31 0.30 0.30 0.30 0.30 0.29 0.31 0.32 0.30 0.29 0.30 0.31 0.30 0.28 0.28 0.28 0.24 0.22 0.22
0.77 0.74 0.71 0.67 0.63 0.62 0.61 0.60 0.57 0.57 0.58 0.61 0.57 0.49 0.41 0.39 0.39 0.45 0.36 0.28 0.43 0.39 0.35 0.35 0.35 0.31 0.37 0.35 0.40 0.40 0.41 0.36 0.37 0.42 0.47 0.41 0.36 0.33 0.38 0.31 0.37 0.34 0.36 0.38 0.40 0.40 0.36 0.34 0.38 0.43 0.47 0.48 0.46 0.45 0.43 0.40 0.38 0.39 0.35 0.34 0.31 0.31 0.33 0.34 0.34 0.34 0.35 0.33 0.30 0.32 0.29 0.28 0.29 0.30 0.31 0.31 0.30 0.31 0.32 0.32 0.33 0.34 0.32 0.30 0.28 0.29 0.26 0.24
0.77 0.75 0.73 0.70 0.65 0.63 0.64 0.63 0.61 0.60 0.56 0.56 0.46 0.35 0.34 0.43 0.49 0.50 0.45 0.44 0.40 0.50 0.39 0.35 0.31 0.30 0.34 0.38 0.42 0.44 0.36 0.32 0.29 0.37 0.40 0.36 0.35 0.37 0.32 0.36 0.35 0.35 0.40 0.42 0.38 0.37 0.35 0.41 0.47 0.52 0.52 0.48 0.47 0.46 0.44 0.43 0.43 0.40 0.38 0.36 0.33 0.36 0.33 0.29 0.34 0.35 0.35 0.34 0.31 0.33 0.31 0.32 0.35 0.35 0.33 0.34 0.34 0.36 0.36 0.35 0.34 0.35 0.35 0.33 0.32 0.31 0.31 0.25
0.77 0.75 0.74 0.70 0.67 0.65 0.69 0.68 0.65 0.62 0.63 0.61 0.50 0.38 0.41 0.50 0.47 0.48 0.40 0.33 0.35 0.42 0.34 0.34 0.34 0.33 0.37 0.32 0.41 0.40 0.36 0.38 0.37 0.36 0.45 0.36 0.30 0.34 0.40 0.41 0.32 0.41 0.41 0.43 0.44 0.42 0.41 0.49 0.55 0.52 0.52 0.49 0.44 0.46 0.44 0.42 0.39 0.42 0.40 0.38 0.38 0.36 0.35 0.34 0.32 0.36 0.37 0.36 0.35 0.32 0.29 0.28 0.30 0.29 0.31 0.34 0.35 0.34 0.35 0.36 0.36 0.35 0.36 0.36 0.36 0.35 0.35 0.31
0.76 0.74 0.73 0.71 0.67 0.68 0.72 0.74 0.59 0.62 0.67 0.66 0.50 0.48 0.46 0.47 0.53 0.52 0.43 0.42 0.44 0.38 0.39 0.37 0.36 0.37 0.44 0.47 0.45 0.35 0.41 0.42 0.40 0.43 0.44 0.38 0.30 0.35 0.42 0.47 0.46 0.39 0.41 0.47 0.46 0.45 0.46 0.53 0.56 0.52 0.50 0.49 0.47 0.44 0.44 0.42 0.37 0.38 0.41 0.40 0.38 0.37 0.35 0.36 0.36 0.35 0.32 0.30 0.34 0.32 0.24 0.23 0.30 0.32 0.32 0.35 0.36 0.33 0.34 0.38 0.38 0.36 0.34 0.36 0.40 0.35 0.36 0.35
0.75 0.73 0.72 0.70 0.67 0.66 0.72 0.72 0.54 0.57 0.60 0.56 0.50 0.48 0.46 0.52 0.53 0.62 0.43 0.41 0.31 0.31 0.32 0.30 0.39 0.37 0.48 0.39 0.41 0.40 0.39 0.35 0.43 0.43 0.39 0.42 0.46 0.39 0.45 0.46 0.45 0.37 0.43 0.47 0.46 0.48 0.51 0.55 0.53 0.49 0.48 0.47 0.47 0.44 0.46 0.44 0.38 0.34 0.36 0.43 0.40 0.36 0.35 0.35 0.35 0.36 0.30 0.27 0.33 0.38 0.26 0.21 0.31 0.31 0.33 0.35 0.35 0.34 0.37 0.35 0.35 0.34 0.34 0.34 0.36 0.40 0.36 0.36
0.73 0.72 0.71 0.68 0.67 0.67 0.58 0.49 0.58 0.68 0.50 0.43 0.46 0.45 0.50 0.52 0.58 0.54 0.51 0.35 0.28 0.26 0.23 0.28 0.35 0.40 0.44 0.40 0.40 0.39 0.26 0.31 0.43 0.49 0.44 0.47 0.45 0.51 0.42 0.40 0.44 0.47 0.51 0.53 0.49 0.45 0.52 0.51 0.52 0.52 0.49 0.46 0.43 0.42 0.46 0.45 0.39 0.33 0.41 0.42 0.41 0.38 0.36 0.36 0.37 0.36 0.33 0.37 0.37 0.37 0.35 0.27 0.25 0.31 0.36 0.37 0.34 0.34 0.40 0.40 0.39 0.37 0.35 0.36 0.36 0.40 0.42 0.37
0.71 0.71 0.70 0.68 0.67 0.68 0.61 0.61 0.57 0.51 0.41 0.46 0.46 0.50 0.50 0.56 0.53 0.57 0.40 0.21 0.18 0.31 0.31 0.33 0.39 0.49 0.43 0.41 0.38 0.35 0.34 0.37 0.31 0.44 0.45 0.44 0.50 0.46 0.45 0.37 0.38 0.41 0.48 0.49 0.36 0.48 0.50 0.47 0.50 0.48 0.47 0.44 0.43 0.45 0.47 0.48 0.41 0.39 0.44 0.44 0.41 0.40 0.39 0.39 0.38 0.36 0.36 0.35 0.28 0.33 0.37 0.29 0.27 0.32 0.37 0.37 0.33 0.34 0.36 0.39 0.36 0.35 0.36 0.36 0.35 0.37 0.41 0.40
0.70 0.69 0.69 0.68 0.68 0.73 0.80 0.73 0.64 0.56 0.51 0.51 0.49 0.49 0.56 0.56 0.55 0.52 0.34 0.18 0.35 0.27 0.50 0.37 0.53 0.44 0.39 0.40 0.39 0.38 0.36 0.39 0.31 0.38 0.43 0.48 0.51 0.47 0.42 0.39 0.41 0.43 0.47 0.47 0.40 0.45 0.50 0.52 0.53 0.50 0.46 0.42 0.47 0.50 0.51 0.50 0.42 0.47 0.49 0.48 0.46 0.44 0.43 0.41 0.38 0.37 0.37 0.33 0.26 0.30 0.35 0.27 0.25 0.32 0.33 0.38 0.35 0.33 0.33 0.32 0.33 0.33 0.35 0.40 0.39 0.38 0.39 0.39
0.69 0.68 0.69 0.67 0.68 0.79 0.80 0.81 0.77 0.71 0.59 0.53 0.51 0.52 0.56 0.57 0.56 0.37 0.28 0.15 0.24 0.27 0.31 0.36 0.37 0.30 0.39 0.30 0.36 0.37 0.31 0.37 0.39 0.37 0.39 0.40 0.48 0.53 0.50 0.48 0.40 0.40 0.40 0.46 0.46 0.48 0.52 0.58 0.56 0.51 0.46 0.50 0.52 0.54 0.54 0.53 0.50 0.53 0.50 0.45 0.44 0.43 0.42 0.42 0.41 0.39 0.34 0.27 0.28 0.34 0.36 0.35 0.25 0.29 0.33 0.31 0.33 0.35 0.35 0.34 0.33 0.35 0.36 0.42 0.42 0.42 0.39 0.38
0.68 0.68 0.68 0.67 0.58 0.65 0.65 0.69 0.61 0.60 0.53 0.53 0.53 0.51 0.48 0.58 0.37 0.26 0.13 0.22 0.31 0.33 0.31 0.34 0.30 0.33 0.33 0.31 0.28 0.36 0.34 0.32 0.37 0.36 0.35 0.42 0.49 0.47 0.44 0.38 0.42 0.38 0.38 0.39 0.42 0.47 0.53 0.51 0.50 0.53 0.57 0.57 0.57 0.51 0.55 0.53 0.53 0.50 0.47 0.43 0.40 0.37 0.39 0.36 0.35 0.38 0.28 0.24 0.32 0.38 0.36 0.36 0.25 0.28 0.35 0.38 0.40 0.38 0.37 0.35 0.36 0.34 0.34 0.38 0.40 0.39 0.39 0.39
0.66 0.66 0.67 0.63 0.62 0.64 0.58 0.52 0.56 0.58 0.54 0.53 0.52 0.58 0.55 0.31 0.42 0.19 0.17 0.36 0.19 0.31 0.28 0.23 0.33 0.32 0.33 0.36 0.32 0.32 0.29 0.34 0.34 0.33 0.30 0.35 0.35 0.37 0.39 0.31 0.32 0.25 0.25 0.30 0.33 0.41 0.40 0.41 0.48 0.53 0.60 0.55 0.51 0.48 0.47 0.49 0.49 0.48 0.47 0.43 0.34 0.29 0.29 0.24 0.28 0.25 0.26 0.25 0.32 0.35 0.35 0.31 0.29 0.35 0.38 0.41 0.44 0.45 0.45 0.41 0.39 0.39 0.39 0.36 0.37 0.39 0.44 0.42
0.64 0.64 0.65 0.63 0.63 0.60 0.70 0.67 0.62 0.61 0.58 0.63 0.63 0.63 0.44 0.27 0.17 0.25 0.20 0.29 0.24 0.29 0.22 0.34 0.29 0.31 0.34 0.32 0.31 0.31 0.34 0.30 0.35 0.34 0.35 0.38 0.35 0.37 0.42 0.40 0.36 0.33 0.23 0.31 0.33 0.34 0.36 0.44 0.47 0.49 0.55 0.56 0.54 0.41 0.39 0.39 0.44 0.46 0.41 0.39 0.33 0.26 0.24 0.21 0.23 0.26 0.26 0.30 0.33 0.32 0.36 0.28 0.32 0.37 0.45 0.43 0.47 0.49 0.49 0.48 0.45 0.41 0.38 0.38 0.38 0.39 0.38 0.38
0.65 0.65 0.60 0.66 0.70 0.69 0.69 0.68 0.70 0.65 0.60 0.68 0.62 0.55 0.43 0.28 0.22 0.33 0.27 0.30 0.27 0.34 0.33 0.33 0.36 0.33 0.34 0.29 0.31 0.33 0.26 0.33 0.33 0.33 0.36 0.34 0.33 0.32 0.38 0.39 0.38 0.34 0.34 0.33 0.30 0.34 0.28 0.30 0.41 0.46 0.42 0.56 0.53 0.49 0.47 0.43 0.45 0.44 0.47 0.44 0.38 0.34 0.27 0.21 0.24 0.22 0.23 0.25 0.29 0.35 0.30 0.28 0.29 0.34 0.46 0.50 0.52 0.51 0.52 0.58 0.52 0.51 0.50 0.52 0.51 0.41 0.41 0.40
0.66 0.64 0.67 0.71 0.76 0.83 0.79 0.76 0.67 0.69 0.62 0.66 0.57 0.45 0.30 0.20 0.24 0.25 0.25 0.24 0.27 0.28 0.29 0.40 0.36 0.29 0.30 0.33 0.34 0.34 0.34 0.25 0.36 0.33 0.34 0.32 0.33 0.34 0.33 0.34 0.37 0.38 0.37 0.26 0.34 0.37 0.32 0.34 0.43 0.54 0.53 0.56 0.51 0.56 0.56 0.49 0.45 0.47 0.48 0.48 0.38 0.35 0.42 0.29 0.31 0.30 0.29 0.28 0.26 0.30 0.29 0.35 0.35 0.45 0.51 0.54 0.54 0.55 0.54 0.51 0.54 0.51 0.52 0.51 0.47 0.49 0.41 0.39
0.64 0.62 0.76 0.76 0.79 0.85 0.68 0.67 0.70 0.71 0.62 0.60 0.45 0.30 0.26 0.25 0.19 0.25 0.26 0.27 0.31 0.25 0.26 0.34 0.32 0.26 0.28 0.28 0.33 0.30 0.40 0.28 0.34 0.30 0.31 0.34 0.37 0.36 0.41 0.39 0.35 0.38 0.34 0.28 0.33 0.30 0.33 0.31 0.46 0.51 0.57 0.55 0.56 0.57 0.56 0.56 0.32 0.42 0.43 0.35 0.38 0.48 0.45 0.37 0.36 0.37 0.36 0.32 0.26 0.34 0.32 0.34 0.40 0.45 0.50 0.53 0.50 0.51 0.52 0.51 0.50 0.50 0.52 0.53 0.52 0.51 0.51 0.51
0.62 0.70 0.68 0.80 0.80 0.67 0.64 0.61 0.66 0.71 0.67 0.54 0.40 0.26 0.23 0.31 0.34 0.29 0.30 0.24 0.26 0.32 0.32 0.24 0.24 0.25 0.24 0.24 0.27 0.30 0.30 0.31 0.33 0.26 0.25 0.36 0.32 0.43 0.42 0.39 0.41 0.39 0.42 0.39 0.32 0.42 0.32 0.32 0.47 0.48 0.46 0.58 0.63 0.62 0.59 0.58 0.52 0.45 0.35 0.40 0.48 0.52 0.48 0.39 0.27 0.28 0.28 0.23 0.25 0.30 0.27 0.28 0.32 0.29 0.49 0.48 0.45 0.47 0.49 0.51 0.52 0.54 0.54 0.52 0.52 0.54 0.52 0.50
0.58 0.69 0.76 0.73 0.74 0.76 0.69 0.62 0.60 0.60 0.57 0.51 0.39 0.32 0.33 0.30 0.34 0.31 0.30 0.29 0.37 0.36 0.32 0.28 0.28 0.32 0.25 0.27 0.25 0.29 0.31 0.22 0.24 0.29 0.25 0.31 0.24 0.45 0.40 0.34 0.40 0.38 0.40 0.47 0.37 0.37 0.43 0.30 0.39 0.47 0.50 0.57 0.65 0.62 0.55 0.57 0.55 0.45 0.41 0.55 0.37 0.30 0.29 0.36 0.33 0.23 0.22 0.21 0.24 0.27 0.29 0.29 0.35 0.34 0.42 0.42 0.43 0.45 0.47 0.50 0.52 0.52 0.54 0.53 0.53 0.54 0.55 0.55
0.65 0.70 0.66 0.77 0.86 0.81 0.67 0.61 0.64 0.56 0.52 0.45 0.30 0.31 0.31 0.32 0.37 0.31 0.34 0.30 0.36 0.33 0.31 0.31 0.28 0.31 0.30 0.28 0.29 0.32 0.31 0.23 0.26 0.29 0.26 0.32 0.24 0.40 0.39 0.40 0.36 0.40 0.42 0.43 0.38 0.39 0.41 0.31 0.32 0.46 0.48 0.55 0.56 0.54 0.38 0.42 0.51 0.50 0.50 0.44 0.48 0.42 0.35 0.31 0.33 0.33 0.31 0.24 0.23 0.23 0.28 0.27 0.39 0.40 0.44 0.43 0.45 0.46 0.47 0.48 0.50 0.53 0.55 0.56 0.56 0.56 0.56 0.56
0.69 0.67 0.58 0.79 0.80 0.74 0.64 0.61 0.57 0.57 0.51 0.39 0.32 0.32 0.30 0.36 0.37 0.38 0.34 0.30 0.33 0.31 0.30 0.29 0.34 0.28 0.31 0.32 0.32 0.27 0.32 0.29 0.27 0.32 0.29 0.32 0.29 0.44 0.39 0.46 0.38 0.37 0.39 0.41 0.36 0.41 0.34 0.43 0.28 0.40 0.52 0.56 0.44 0.49 0.42 0.42 0.38 0.39 0.39 0.37 0.40 0.39 0.44 0.40 0.39 0.34 0.30 0.26 0.25 0.25 0.23 0.29 0.40 0.49 0.46 0.45 0.47 0.48 0.50 0.50 0.52 0.53 0.55 0.57 0.59 0.59 0.58 0.58
0.68 0.60 0.62 0.77 0.70 0.64 0.59 0.62 0.57 0.44 0.38 0.41 0.40 0.34 0.37 0.28 0.25 0.41 0.39 0.39 0.37 0.44 0.31 0.32 0.35 0.29 0.32 0.30 0.30 0.34 0.30 0.30 0.29 0.31 0.31 0.33 0.33 0.28 0.44 0.42 0.40 0.33 0.40 0.36 0.35 0.35 0.33 0.36 0.29 0.37 0.41 0.44 0.46 0.57 0.51 0.48 0.46 0.43 0.41 0.38 0.39 0.35 0.31 0.28 0.26 0.38 0.36 0.30 0.26 0.25 0.23 0.32 0.45 0.49 0.48 0.47 0.50 0.52 0.54 0.54 0.54 0.56 0.59 0.60 0.60 0.61 0.62 0.60
0.61 0.54 0.61 0.73 0.63 0.60 0.63 0.57 0.51 0.47 0.42 0.33 0.29 0.31 0.29 0.28 0.31 0.37 0.35 0.43 0.39 0.34 0.42 0.38 0.38 0.33 0.34 0.32 0.33 0.32 0.30 0.28 0.30 0.32 0.33 0.25 0.36 0.34 0.42 0.46 0.40 0.41 0.36 0.29 0.30 0.39 0.40 0.38 0.35 0.32 0.40 0.43 0.49 0.58 0.61 0.56 0.53 0.49 0.46 0.41 0.45 0.41 0.39 0.32 0.24 0.28 0.34 0.34 0.36 0.34 0.28 0.29 0.46 0.49 0.49 0.51 0.53 0.55 0.56 0.56 0.56 0.58 0.60 0.63 0.66 0.65 0.65 0.64
0.63 0.52 0.68 0.73 0.60 0.59 0.62 0.51 0.45 0.41 0.42 0.39 0.39 0.43 0.36 0.39 0.31 0.38 0.37 0.39 0.36 0.35 0.33 0.32 0.35 0.31 0.33 0.34 0.33 0.32 0.34 0.27 0.31 0.32 0.30 0.35 0.34 0.39 0.42 0.43 0.42 0.39 0.39 0.35 0.31 0.40 0.39 0.36 0.31 0.34 0.44 0.52 0.58 0.61 0.62 0.60 0.55 0.48 0.47 0.49 0.45 0.38 0.39 0.37 0.35 0.37 0.32 0.33 0.31 0.30 0.26 0.29 0.41 0.47 0.50 0.54 0.56 0.58 0.59 0.59 0.58 0.61 0.64 0.66 0.69 0.68 0.67 0.65
0.56 0.58 0.65 0.72 0.71 0.59 0.53 0.38 0.35 0.39 0.40 0.45 0.45 0.40 0.41 0.37 0.30 0.35 0.36 0.41 0.30 0.32 0.27 0.33 0.36 0.35 0.30 0.37 0.34 0.32 0.36 0.25 0.34 0.31 0.32 0.36 0.33 0.43 0.42 0.43 0.44 0.37 0.37 0.35 0.29 0.39 0.29 0.35 0.34 0.29 0.31 0.37 0.44 0.50 0.53 0.54 0.52 0.47 0.43 0.46 0.47 0.45 0.42 0.42 0.42 0.43 0.32 0.34 0.32 0.28 0.23 0.29 0.42 0.50 0.53 0.55 0.57 0.57 0.57 0.61 0.63 0.62 0.65 0.68 0.69 0.71 0.70 0.68
0.59 0.70 0.68 0.67 0.73 0.62 0.42 0.42 0.40 0.41 0.42 0.41 0.37 0.39 0.32 0.42 0.47 0.37 0.27 0.32 0.39 0.37 0.27 0.34 0.32 0.33 0.34 0.37 0.33 0.36 0.36 0.34 0.29 0.35 0.36 0.37 0.36 0.43 0.44 0.43 0.44 0.40 0.45 0.41 0.39 0.44 0.35 0.34 0.33 0.26 0.21 0.20 0.21 0.24 0.29 0.34 0.41 0.48 0.48 0.47 0.47 0.42 0.40 0.38 0.32 0.34 0.29 0.33 0.34 0.30 0.29 0.37 0.45 0.49 0.51 0.54 0.56 0.57 0.60 0.62 0.65 0.65 0.65 0.67 0.71 0.73 0.71 0.70
0.50 0.44 0.49 0.53 0.63 0.60 0.60 0.59 0.53 0.44 0.42 0.37 0.33 0.36 0.39 0.37 0.43 0.43 0.31 0.32 0.40 0.33 0.34 0.34 0.36 0.36 0.35 0.33 0.31 0.30 0.29 0.38 0.32 0.30 0.39 0.36 0.36 0.41 0.43 0.43 0.45 0.43 0.42 0.39 0.42 0.42 0.35 0.39 0.38 0.36 0.31 0.27 0.33 0.40 0.48 0.50 0.47 0.40 0.43 0.45 0.44 0.44 0.44 0.43 0.40 0.34 0.30 0.34 0.32 0.34 0.36 0.37 0.39 0.44 0.47 0.51 0.53 0.53 0.55 0.58 0.57 0.57 0.61 0.68 0.71 0.75 0.77 0.75
0.61 0.47 0.47 0.43 0.47 0.57 0.52 0.55 0.50 0.50 0.42 0.38 0.38 0.36 0.33 0.38 0.41 0.43 0.44 0.34 0.42 0.38 0.35 0.38 0.35 0.32 0.32 0.31 0.31 0.29 0.31 0.32 0.35 0.36 0.34 0.31 0.36 0.40 0.44 0.46 0.44 0.44 0.40 0.40 0.43 0.39 0.37 0.32 0.37 0.38 0.36 0.38 0.40 0.45 0.49 0.49 0.43 0.44 0.41 0.41 0.44 0.41 0.42 0.40 0.36 0.32 0.40 0.35 0.28 0.36 0.40 0.37 0.39 0.44 0.49 0.50 0.53 0.54 0.55 0.55 0.53 0.49 0.50 0.60 0.70 0.75 0.78 0.78
0.46 0.52 0.56 0.55 0.41 0.48 0.44 0.48 0.49 0.45 0.54 0.43 0.44 0.41 0.39 0.34 0.40 0.38 0.37 0.40 0.36 0.40 0.33 0.36 0.32 0.36 0.34 0.31 0.32 0.27 0.32 0.33 0.32 0.28 0.31 0.36 0.36 0.40 0.40 0.43 0.42 0.41 0.40 0.38 0.42 0.39 0.32 0.28 0.34 0.35 0.34 0.38 0.42 0.45 0.49 0.47 0.48 0.46 0.43 0.42 0.39 0.41 0.41 0.38 0.39 0.42 0.41 0.34 0.30 0.38 0.41 0.38 0.41 0.47 0.51 0.53 0.56 0.55 0.55 0.51 0.51 0.51 0.50 0.53 0.59 0.66 0.70 0.73
0.59 0.56 0.58 0.63 0.50 0.55 0.54 0.52 0.52 0.52 0.52 0.53 0.43 0.42 0.34 0.34 0.36 0.42 0.33 0.33 0.38 0.42 0.44 0.29 0.32 0.35 0.33 0.34 0.35 0.32 0.35 0.28 0.26 0.30 0.30 0.32 0.33 0.35 0.35 0.39 0.42 0.40 0.39 0.38 0.39 0.44 0.35 0.31 0.33 0.32 0.33 0.35 0.40 0.45 0.47 0.46 0.47 0.45 0.41 0.40 0.40 0.41 0.41 0.42 0.41 0.43 0.43 0.40 0.42 0.42 0.42 0.42 0.46 0.49 0.53 0.57 0.60 0.59 0.55 0.52 0.50 0.47 0.47 0.51 0.53 0.51 0.54 0.62
0.47 0.45 0.52 0.54 0.59 0.61 0.62 0.59 0.54 0.54 0.50 0.51 0.39 0.43 0.39 0.37 0.38 0.40 0.41 0.38 0.29 0.38 0.42 0.36 0.35 0.35 0.33 0.36 0.38 0.35 0.40 0.37 0.31 0.23 0.32 0.33 0.32 0.38 0.34 0.38 0.36 0.38 0.40 0.37 0.37 0.42 0.35 0.29 0.33 0.33 0.30 0.31 0.41 0.45 0.45 0.46 0.47 0.40 0.39 0.36 0.40 0.42 0.42 0.43 0.43 0.44 0.45 0.42 0.44 0.43 0.41 0.40 0.49 0.56 0.57 0.61 0.61 0.60 0.56 0.50 0.44 0.44 0.47 0.49 0.48 0.48 0.48 0.50
0.58 0.61 0.61 0.50 0.49 0.56 0.53 0.57 0.56 0.50 0.47 0.48 0.39 0.39 0.35 0.39 0.39 0.39 0.34 0.42 0.37 0.32 0.37 0.33 0.35 0.35 0.38 0.38 0.39 0.39 0.42 0.36 0.30 0.34 0.37 0.35 0.29 0.36 0.33 0.35 0.40 0.33 0.36 0.36 0.36 0.37 0.37 0.30 0.34 0.32 0.25 0.28 0.37 0.38 0.40 0.46 0.47 0.37 0.31 0.33 0.37 0.38 0.37 0.41 0.40 0.44 0.42 0.39 0.41 0.41 0.37 0.38 0.49 0.57 0.59 0.60 0.58 0.55 0.51 0.49 0.47 0.45 0.48 0.52 0.53 0.56 0.55 0.53
0.64 0.76 0.74 0.63 0.49 0.60 0.55 0.60 0.54 0.54 0.46 0.48 0.44 0.39 0.35 0.34 0.36 0.39 0.33 0.43 0.40 0.44 0.44 0.41 0.38 0.36 0.37 0.36 0.38 0.39 0.37 0.33 0.36 0.43 0.43 0.41 0.40 0.38 0.41 0.41 0.39 0.35 0.35 0.33 0.36 0.33 0.34 0.31 0.27 0.28 0.23 0.23 0.32 0.35 0.41 0.43 0.38 0.30 0.25 0.31 0.36 0.40 0.42 0.44 0.45 0.46 0.46 0.47 0.41 0.36 0.37 0.48 0.53 0.57 0.55 0.55 0.55 0.53 0.49 0.48 0.46 0.45 0.50 0.55 0.58 0.62 0.63 0.61
Wind_Speed
17 17 17 17 17 17 17 17 17 17 17 17 18 18 18 19 20 20 21 21 21 20 21 21 21 21 20 20 19 19 19 19 21 20 17 18 20 20 21 21 21 21 21 21 22 23 23 22 23 23 24 24 25 25 26 27 27 26 26 28 30 30 29 27 27 26 25 24 17 13 19 22 21 22 25 26 26 27 26 24 22 22 22 24 24 19 18 20
17 17 17 17 17 18 17 17 17 17 17 18 18 18 19 19 20 20 21 21 20 20 21 21 21 20 19 19 18 19 19 19 20 17 16 18 19 19 20 20 20 20 20 21 22 23 22 22 23 23 23 24 24 25 26 26 27 28 27 28 30 29 29 28 27 27 26 26 22 17 19 22 24 23 23 25 27 28 30 29 28 27 25 26 28 27 25 23
17 17 17 17 18 18 18 18 18 17 17 18 18 19 19 20 20 21 21 21 20 21 21 21 20 20 19 18 18 18 18 20 18 15 17 19 19 19 19 20 20 19 19 20 22 22 21 22 23 22 23 24 24 25 26 25 27 28 28 29 30 29 29 30 30 29 27 26 26 24 24 23 25 26 24 24 25 26 27 27 29 30 30 29 29 30 30 28
18 17 17 18 18 18 18 18 17 17 17 18 18 19 20 20 21 21 21 21 20 20 20 20 20 19 18 18 18 17 19 19 16 15 18 18 18 19 19 19 19 19 19 20 21 21 21 21 22 22 23 23 25 25 25 25 25 26 28 30 30 29 29 30 31 31 29 27 26 26 27 27 26 27 28 26 25 25 25 24 25 27 29 30 30 31 31 30
18 17 18 18 18 18 18 18 17 17 17 18 19 20 20 21 21 22 21 20 20 20 20 19 19 18 17 17 17 17 18 17 15 16 18 18 18 18 18 18 18 18 18 20 20 19 19 20 21 21 21 22 23 24 25 26 25 26 28 30 30 30 30 30 30 29 27 28 29 29 29 29 28 28 30 30 29 27 25 24 24 26 26 26 27 28 28 27
18 18 18 18 19 18 18 17 17 17 18 19 20 20 21 21 22 22 21 20 20 20 19 19 18 18 17 17 16 17 17 16 15 17 18 18 18 18 18 17 17 17 17 19 19 18 19 19 19 20 20 21 21 22 24 26 26 27 28 30 31 31 30 31 32 30 28 29 31 31 32 31 31 31 31 32 33 31 30 29 27 26 26 25 25 25 26 28
18 18 18 19 18 18 18 17 17 18 18 19 20 21 21 22 22 22 21 20 19 19 19 18 18 17 18 17 16 17 17 16 16 17 18 18 17 17 16 15 16 17 17 18 17 18 18 17 18 19 20 20 21 22 23 25 27 26 26 28 29 30 30 30 32 33 32 32 32 32 34 35 35 34 34 35 35 34 35 34 33 30 28 27 27 26 28 30
18 18 19 19 18 18 18 18 18 18 19 20 21 21 22 22 22 21 20 19 19 18 17 17 17 17 17 17 17 17 16 16 16 17 17 16 16 15 15 15 16 16 16 15 15 15 15 15 16 16 17 17 19 21 21 22 23 25 26 27 28 29 30 30 30 32 32 33 33 33 35 38 39 38 38 40 39 38 37 37 37 36 34 31 29 27 28 31
19 19 19 19 18 18 18 18 18 19 19 20 21 22 22 22 22 21 20 18 18 17 17 17 17 17 17 16 17 16 15 16 17 16 14 14 14 13 13 14 13 13 13 12 12 12 13 14 13 13 14 15 16 17 18 19 19 21 24 25 26 27 28 28 29 30 31 33 34 35 36 37 39 39 41 44 44 42 41 40 39 39 39 37 35 32 30 31
19 19 19 19 19 19 18 18 19 19 20 21 21 22 22 22 21 20 19 18 17 16 17 17 17 17 16 16 17 16 15 17 16 14 12 12 12 12 11 11 10 11 11 11 11 11 12 12 12 13 13 13 14 14 15 17 17 20 21 21 23 24 25 26 27 28 29 30 32 34 35 35 36 36 38 41 42 42 43 42 41 40 40 40 40 38 36 34
19 19 19 19 19 19 19 19 19 20 20 21 22 22 22 21 21 20 18 17 16 16 16 16 17 17 16 17 17 15 16 16 13 12 11 11 11 11 10 9 10 11 11 11 11 10 11 11 12 12 12 12 13 14 15 15 16 18 20 20 22 23 24 25 26 27 26 26 29 30 32 33 33 34 36 37 38 39 40 41 42 42 42 42 41 41 40 38
19 19 19 18 19 19 19 19 19 20 21 21 22 22 21 21 20 19 18 17 16 15 16 16 17 17 17 17 15 14 16 14 10 10 10 10 10 10 10 9 10 11 11 12 11 10 10 10 12 12 12 14 15 15 15 15 16 17 18 19 20 21 22 23 24 25 24 24 25 26 28 30 31 33 34 35 35 36 37 39 40 41 42 42 42 42 41 41
19 19 18 18 19 19 19 19 20 20 21 22 22 21 21 20 19 18 17 16 15 15 15 16 17 16 16 15 13 14 15 11 8 9 9 10 10 10 10 9 10 12 12 11 10 11 11 10 11 12 13 15 16 16 17 17 17 18 18 18 19 19 20 20 21 23 24 23 23 22 24 26 27 29 31 31 32 34 35 37 38 38 39 39 40 41 42 42
19 19 18 18 19 19 19 19 20 21 21 22 22 21 20 19 18 18 17 16 15 15 16 16 16 16 15 13 12 13 13 10 7 8 9 10 10 10 11 10 10 11 11 11 11 11 11 11 11 12 12 13 14 15 17 17 17 17 18 18 18 18 18 17 17 19 21 21 21 21 22 23 22 24 26 27 29 31 33 34 35 36 36 37 37 38 41 41
19 19 19 19 19 19 19 20 21 21 22 22 22 21 20 19 18 18 17 16 15 15 16 16 15 14 14 12 10 11 11 9 8 9 10 11 10 11 13 12 12 12 10 11 11 10 11 11 11 11 12 12 12 13 13 13 14 15 16 16 16 17 17 17 16 17 18 18 20 21 21 21 21 21 23 23 24 27 30 31 33 34 35 35 35 35 37 38
19 19 19 19 19 19 19 20 21 22 22 22 21 20 19 18 17 17 17 16 15 15 15 16 14 13 13 12 10 9 10 10 10 11 11 10 9 11 14 13 13 12 11 11 9 9 10 10 11 11 11 11 11 10 10 10 11 12 13 15 16 17 17 17 16 17 18 17 18 21 22 21 20 20 21 22 22 23 25 26 28 30 32 34 34 34 35 35
19 19 19 19 19 19 20 21 22 22 22 22 21 20 19 18 17 17 17 15 14 15 15 16 15 14 12 12 11 9 11 12 11 12 10 9 9 13 15 13 13 11 11 11 10 10 10 10 11 11 10 10 10 10 10 10 10 10 11 12 15 17 17 17 17 15 16 17 18 21 23 23 22 21 23 23 23 23 22 23 25 26 27 29 31 33 34 35
20 19 19 19 19 20 20 21 22 22 22 22 21 19 18 17 17 17 17 14 14 15 16 15 15 14 11 11 12 11 12 12 11 11 10 9 11 14 15 12 12 11 11 11 10 9 9 9 10 10 10 11 10 10 11 12 12 13 13 12 14 16 16 17 17 14 16 19 19 21 24 25 25 24 24 24 24 24 24 25 26 26 27 28 29 31 32 33
20 20 20 19 19 20 20 21 22 22 22 21 20 19 18 17 16 16 15 13 13 15 16 14 14 13 11 12 12 11 12 11 10 9 8 10 13 16 15 12 12 11 10 10 9 8 9 9 10 10 11 12 12 12 12 14 16 17 17 16 16 16 16 17 17 15 17 20 21 22 24 25 25 24 24 24 26 27 27 27 27 27 28 29 30 31 32 33
20 20 20 20 19 20 20 21 21 22 21 21 20 19 18 18 16 14 15 13 13 15 16 14 14 13 11 13 12 12 11 9 9 7 8 13 15 16 15 11 10 9 8 10 10 9 10 11 10 11 13 14 14 14 14 16 17 18 18 17 18 17 16 16 16 16 17 19 20 21 22 23 24 25 25 25 26 27 28 28 29 28 28 28 30 31 32 33
20 20 20 20 19 20 20 21 21 21 21 20 20 20 19 19 17 16 17 15 12 13 15 14 13 11 11 13 12 10 10 9 7 6 9 15 16 14 14 11 10 9 10 11 11 11 11 11 12 13 14 14 14 15 16 17 18 18 17 17 17 17 17 17 17 16 16 18 19 20 22 23 23 24 23 24 26 27 28 29 30 31 30 30 30 31 31 32
21 20 20 20 19 20 20 20 21 21 20 19 19 19 19 18 17 16 16 15 13 12 13 13 13 11 12 13 10 8 11 10 6 6 12 16 15 14 14 12 10 10 12 12 11 11 11 12 13 13 14 15 15 16 16 17 17 16 16 16 16 16 16 17 17 17 16 16 17 19 21 22 22 22 22 22 23 25 27 29 30 31 32 32 32 32 32 31
21 20 20 20 19 19 20 20 20 20 19 18 18 19 19 18 17 16 14 14 13 12 12 12 13 12 12 12 9 8 12 10 5 8 14 15 14 14 13 12 11 11 12 11 11 12 12 12 13 13 14 16 16 16 16 16 15 14 14 14 15 15 16 16 16 17 16 17 19 21 22 21 21 22 22 23 24 24 26 27 29 30 32 33 34 33 33 32
21 20 20 20 19 19 19 20 20 18 17 18 18 19 19 17 17 17 14 13 12 10 10 13 12 10 11 13 10 9 11 8 5 9 13 15 15 13 12 12 11 11 12 13 14 13 13 13 13 14 15 15 16 15 15 14 13 14 14 14 14 16 17 16 17 17 18 18 19 21 21 20 20 21 21 21 22 23 24 26 28 29 31 33 34 34 33 33
21 20 20 20 19 19 19 19 18 17 17 17 19 20 19 17 17 16 14 12 11 8 9 12 11 10 13 14 9 9 10 7 6 8 12 14 14 12 12 11 10 12 14 15 14 12 12 12 14 15 14 14 15 14 13 13 13 14 14 14 15 16 17 18 18 18 17 16 16 16 17 16 16 18 18 17 18 19 21 23 25 27 30 32 34 35 34 34
21 20 20 20 19 19 18 17 17 18 16 16 19 20 18 17 16 14 13 12 9 9 11 12 13 13 14 13 10 9 9 6 7 8 9 12 12 11 12 11 11 14 15 14 13 11 11 13 15 15 14 14 14 12 12 14 14 14 13 14 16 17 18 18 19 17 16 15 15 15 16 15 15 17 17 18 18 19 19 21 22 24 27 30 33 34 35 35
21 20 20 20 19 18 17 16 18 19 17 17 20 19 17 16 14 13 12 11 9 11 13 12 14 15 14 12 10 9 7 7 7 8 8 10 11 10 11 13 13 14 14 13 11 11 13 15 15 14 14 13 12 12 13 15 14 14 14 16 17 18 19 18 18 17 15 16 17 16 16 16 16 16 17 18 18 18 20 21 21 21 23 26 30 33 34 34
20 20 20 20 19 17 16 16 18 18 17 18 19 17 16 15 13 12 12 10 10 12 13 12 14 15 14 13 10 7 8 7 6 7 8 9 10 10 11 14 16 15 14 12 12 13 14 15 15 14 13 12 12 13 15 15 14 14 16 17 17 18 18 18 17 16 15 15 15 14 14 15 15 14 15 16 16 16 17 18 18 17 18 21 25 31 33 32
20 19 19 20 19 17 16 16 16 18 18 18 18 16 15 14 12 11 11 10 11 12 12 12 13 15 16 13 8 7 9 6 6 10 9 7 8 11 11 13 16 16 14 11 11 13 14 14 14 12 12 12 13 14 15 15 14 15 17 17 17 17 17 16 14 14 13 13 14 14 13 12 13 13 13 12 12 13 13 13 13 13 14 16 19 25 30 31
20 19 19 19 18 16 16 15 15 17 18 17 17 15 13 12 12 12 11 11 12 12 12 13 14 15 16 13 9 9 10 8 8 11 8 5 8 11 11 12 15 15 12 11 11 11 11 13 12 11 13 13 13 14 14 14 14 16 16 16 16 15 14 13 12 12 11 11 12 13 13 12 12 12 11 11 11 12 12 12 12 10 10 13 16 20 25 28
20 19 19 18 17 17 16 15 16 18 18 17 16 14 12 12 11 12 12 11 11 12 13 14 15 15 15 13 10 11 12 9 8 9 7 5 8 10 11 12 15 15 11 12 13 10 10 11 12 12 13 13 13 14 14 13 14 15 16 16 16 14 12 11 9 9 9 10 12 13 14 14 13 12 12 12 13 14 13 13 12 11 10 11 13 17 21 24
20 18 18 17 16 16 16 16 17 18 17 16 15 12 12 12 11 11 13 12 11 13 14 14 15 15 15 13 11 12 13 9 8 8 8 7 8 9 10 11 15 15 13 14 15 12 11 11 13 13 12 13 14 14 14 14 14 15 16 16 15 13 12 10 9 9 9 11 13 14 15 14 13 12 12 13 13 14 14 15 15 13 12 12 13 15 18 21
19 18 17 16 16 16 15 17 18 17 17 15 13 12 12 12 11 11 14 13 12 13 14 15 15 15 14 12 12 13 13 10 9 9 8 9 9 8 8 11 14 14 14 15 15 13 12 11 13 13 12 13 15 14 14 15 15 16 16 16 15 13 12 12 12 10 9 11 14 16 15 13 12 11 11 13 14 14 14 15 14 14 13 13 14 16 18 19
20 17 16 15 15 15 16 17 17 17 16 13 12 12 12 12 11 12 13 14 14 14 15 15 14 14 13 11 12 14 12 11 10 9 9 9 8 8 8 10 13 14 14 15 13 14 14 12 12 14 13 13 14 14 15 17 15 15 16 15 14 13 13 14 13 11 12 14 15 15 12 10 10 11 11 13 14 14 14 15 13 13 13 13 14 16 18 20
19 16 15 15 15 15 16 17 17 16 15 13 12 12 12 12 13 13 14 14 15 15 15 15 12 12 12 12 13 14 11 11 11 10 9 9 7 7 9 10 12 14 14 14 13 14 15 13 13 13 12 13 13 13 16 17 15 15 15 15 14 15 14 13 13 13 14 13 12 11 9 9 11 11 12 13 14 15 16 16 15 15 15 15 15 16 17 19
18 14 14 14 14 14 15 16 16 15 14 13 12 12 12 12 13 14 14 15 14 14 15 14 11 12 12 12 13 14 12 12 12 10 8 8 7 7 9 9 11 13 13 13 13 13 13 14 14 12 11 12 12 12 16 17 16 15 15 15 16 16 14 12 13 13 12 11 10 10 11 11 10 9 11 14 16 16 16 17 17 17 17 17 16 16 17 17
16 14 14 14 14 14 15 16 15 14 13 13 12 12 13 12 12 13 14 14 14 13 14 13 11 12 13 12 13 15 15 13 12 11 9 9 8 8 9 9 10 13 13 13 13 11 11 14 14 11 10 12 10 11 14 16 18 16 14 16 17 14 12 13 12 12 11 10 10 11 14 14 11 10 13 17 18 19 18 18 18 18 19 19 18 18 19 19
16 15 14 14 13 14 16 16 14 13 13 13 11 11 12 12 12 13 14 14 13 13 13 11 11 12 12 13 13 15 16 14 12 12 11 9 8 8 8 8 10 13 13 13 13 11 11 14 13 10 11 11 9 9 12 15 18 18 15 16 16 14 14 16 14 12 12 11 11 13 15 14 11 12 16 20 21 21 21 21 20 20 20 21 21 21 21 21
16 15 13 12 13 15 16 15 14 13 13 13 11 11 12 13 12 13 14 13 12 12 13 11 11 12 12 13 14 15 16 15 13 12 11 9 8 8 8 9 11 13 14 13 13 12 11 12 12 11 10 10 9 9 11 13 16 18 16 16 17 15 16 16 14 12 13 13 12 14 15 13 13 16 19 22 23 24 24 23 23 23 23 23 23 23 23 22
15 14 12 13 15 16 15 14 13 13 13 12 11 12 13 13 12 12 13 13 11 11 12 12 12 12 12 13 13 14 15 15 14 12 11 10 9 8 8 10 11 13 14 14 13 12 11 10 12 13 11 10 9 9 10 12 14 16 18 18 18 17 16 16 13 12 13 14 14 15 15 14 16 18 20 24 26 25 25 25 24 24 25 25 25 25 25 25
15 13 12 14 16 15 14 13 13 13 12 11 11 12 13 13 13 13 12 12 11 11 10 11 12 12 12 13 13 14 15 15 14 12 11 10 9 9 9 10 12 12 13 13 12 11 11 11 12 14 12 11 9 7 10 12 13 15 17 18 18 19 19 16 13 14 14 14 14 16 16 17 17 19 23 26 25 24 25 26 24 24 25 25 25 25 26 26
14 13 12 14 16 14 14 13 12 12 12 11 12 12 12 13 13 13 12 12 12 11 10 10 11 12 12 12 13 14 15 15 13 11 12 12 11 10 10 11 12 12 12 11 11 11 11 10 11 13 13 10 6 6 9 10 11 14 17 17 18 19 19 17 15 16 16 15 16 16 17 17 17 21 26 25 23 24 25 26 24 24 24 24 24 24 25 26
14 13 12 14 15 13 13 13 12 12 12 12 13 12 12 12 12 12 13 12 12 11 11 11 11 11 11 12 13 14 14 14 12 12 13 13 12 12 12 12 12 12 10 10 11 11 10 10 11 13 11 7 4 6 8 9 11 14 16 18 17 18 19 17 15 17 16 16 18 18 17 18 18 23 27 25 24 25 25 25 24 23 23 23 24 23 22 24
15 14 12 13 13 13 13 13 13 13 12 12 13 12 12 12 12 13 13 12 12 12 12 11 11 11 11 12 13 13 13 12 12 14 14 12 13 14 13 12 12 11 9 9 11 11 10 9 11 13 11 7 6 7 8 11 14 14 16 18 17 18 20 18 16 17 15 16 20 20 18 20 22 26 27 25 25 25 24 25 24 22 23 24 23 22 21 21
15 13 12 12 13 13 13 13 14 14 12 12 13 13 13 11 11 12 13 12 12 12 12 12 12 12 11 12 13 13 13 12 13 14 14 13 14 14 13 13 13 10 9 11 13 11 10 10 10 11 11 10 10 10 10 13 15 13 15 18 18 19 21 19 18 17 16 19 22 20 20 24 26 27 28 26 26 26 25 24 23 22 24 23 21 19 19 19
13 12 13 13 13 13 12 12 13 13 12 12 12 13 13 12 11 11 12 12 11 11 12 12 12 12 12 12 13 13 13 13 14 14 13 14 15 14 14 14 12 9 10 12 13 10 9 9 10 10 11 12 13 13 12 13 13 13 15 17 18 19 20 19 18 18 19 21 21 20 24 29 30 29 29 28 28 28 26 24 24 23 23 22 18 17 17 18
12 13 13 13 14 13 11 12 13 13 12 11 12 13 13 13 12 12 11 11 11 11 12 11 11 11 12 13 13 13 13 14 14 14 14 15 15 14 15 13 9 9 11 11 10 9 9 9 11 12 13 14 14 13 12 11 11 12 15 17 18 20 20 20 19 20 21 21 20 23 27 30 30 30 30 30 30 28 26 25 25 24 23 21 18 16 16 16
13 13 13 12 12 12 12 13 14 13 11 10 11 12 13 14 13 13 12 12 12 11 11 10 11 12 13 13 12 12 13 14 14 14 15 16 15 15 14 12 9 10 11 10 9 8 9 10 12 13 15 16 14 12 11 10 9 11 14 16 19 20 20 21 20 20 21 20 22 26 29 29 30 31 31 31 30 29 28 27 26 25 24 22 19 18 18 16
14 13 12 12 13 13 13 13 14 12 10 11 11 12 12 14 14 13 13 12 12 11 10 10 12 13 13 13 12 12 12 13 13 14 15 15 15 14 14 11 10 12 11 9 9 8 9 10 12 14 15 16 12 8 8 8 8 10 13 17 19 20 20 20 20 20 20 20 22 25 28 29 30 31 31 30 30 29 28 27 27 27 26 23 22 21 21 19
13 13 13 14 14 13 12 12 12 12 11 10 10 11 13 14 13 13 13 12 12 11 11 12 13 13 13 13 12 11 12 13 14 14 15 14 14 13 13 11 11 13 12 10 9 9 9 11 13 13 14 12 9 7 8 8 6 8 13 18 20 20 19 19 20 21 21 21 23 25 27 29 29 30 30 30 30 29 28 28 29 28 27 26 25 24 23 22
13 13 13 14 13 12 12 11 11 11 10 9 10 12 14 14 13 14 14 12 11 11 12 12 12 13 13 12 11 12 12 13 13 14 14 13 12 13 13 12 13 13 12 11 11 10 10 11 12 12 12 10 9 9 9 7 5 8 15 21 21 21 21 20 20 21 22 23 25 27 29 30 31 32 30 30 31 30 29 29 30 30 29 28 27 26 24 22
14 13 13 13 12 12 13 12 11 10 9 10 12 13 14 14 13 14 14 12 11 11 11 11 12 12 12 12 12 12 13 13 12 12 12 12 12 12 12 12 13 13 12 12 11 10 11 11 11 11 11 11 12 12 8 5 6 10 17 21 21 20 21 20 20 20 22 22 23 27 30 31 32 33 31 31 32 32 30 30 31 31 31 29 28 27 24 21
Wind_Direction
342 341 340 340 339 339 338 336 335 333 332 330 329 327 326 325 325 324 322 320 318 317 316 315 313 312 310 308 306 304 302 300 300 296 291 295 297 292 291 289 286 283 281 279 275 274 272 267 265 263 260 257 255 253 251 248 247 247 246 247 248 248 248 248 249 250 252 252 260 264 249 246 244 239 236 239 242 240 241 243 239 237 237 233 229 227 234 240
342 341 341 340 340 340 339 337 335 333 332 331 330 329 328 327 327 326 325 323 322 321 320 318 317 315 313 310 309 306 305 303 301 302 305 302 298 297 295 292 288 285 281 279 278 276 273 270 268 265 261 259 257 253 251 248 246 246 247 247 248 249 249 249 251 251 250 252 255 257 252 248 244 242 240 241 243 241 241 242 242 242 240 238 237 239 243 244
343 342 341 341 341 341 340 338 336 334 333 333 332 331 330 330 329 328 327 326 324 323 322 321 319 317 314 312 310 308 307 305 302 306 310 304 302 301 298 295 291 286 283 281 281 280 276 272 270 267 263 260 258 254 251 249 247 246 247 249 250 251 252 250 251 251 252 256 253 249 250 250 247 243 242 245 244 242 241 241 242 243 242 243 242 242 245 246
344 343 343 343 343 342 340 338 336 335 335 335 335 334 333 332 330 329 328 326 325 324 323 321 320 318 315 313 311 311 309 306 307 313 311 306 306 304 300 298 293 287 285 283 282 281 278 273 269 268 265 262 259 255 251 249 248 247 247 250 252 253 253 252 251 251 253 257 252 248 249 249 248 244 243 247 246 242 243 243 244 244 244 245 244 243 243 244
346 345 345 344 344 342 340 339 338 337 337 337 336 335 334 332 331 330 328 327 326 325 324 322 322 319 316 315 312 310 309 307 311 313 310 308 308 306 304 300 296 292 288 285 283 281 280 276 272 267 265 263 260 256 251 248 250 251 251 253 254 254 254 253 252 252 253 254 251 248 248 249 249 247 244 246 246 244 244 246 248 247 247 245 244 244 241 238
347 346 346 345 344 342 341 340 339 339 339 338 337 335 334 333 332 331 329 328 326 326 325 323 323 321 319 316 313 309 310 312 313 312 311 309 308 307 305 302 301 298 292 289 288 284 282 277 272 268 265 263 260 259 254 249 250 253 253 254 254 254 255 254 252 253 256 255 253 250 248 249 250 248 247 247 247 247 248 251 252 249 249 246 242 241 238 236
348 347 345 345 344 343 342 341 341 340 339 337 336 336 335 334 333 332 330 328 327 327 325 325 324 324 323 319 316 311 310 314 315 313 312 309 309 309 306 306 303 299 295 294 292 289 286 278 273 273 270 265 262 262 258 253 254 255 257 256 256 256 256 256 254 254 256 255 255 253 250 250 250 251 251 250 249 249 250 252 252 249 250 248 241 238 239 239
347 346 345 345 344 344 343 342 341 340 338 337 337 337 336 336 335 334 332 330 329 328 327 327 326 327 328 325 320 315 312 316 316 314 314 312 312 312 309 307 302 301 302 302 300 295 292 285 280 279 273 270 270 269 264 260 258 258 260 259 258 258 257 257 255 255 256 256 256 256 253 251 252 253 253 252 251 251 251 251 251 248 248 247 242 239 239 238
347 345 345 345 345 344 343 343 342 340 339 339 339 338 338 338 337 336 334 333 331 330 330 329 329 329 330 328 322 320 320 319 316 315 317 317 316 314 313 314 313 315 316 312 308 301 300 296 291 290 285 279 276 273 270 265 261 259 261 260 259 258 258 257 256 255 257 256 256 256 255 253 253 254 254 252 252 252 251 250 249 248 247 245 243 243 242 239
346 345 345 345 345 344 344 344 343 342 341 341 340 339 340 340 339 338 336 335 333 333 333 332 331 330 329 328 325 325 324 319 319 320 321 324 324 322 322 327 333 333 330 326 318 309 307 305 299 296 291 284 279 276 272 267 266 266 267 266 263 261 261 259 258 258 257 256 255 255 255 254 254 253 253 252 252 252 251 249 248 247 246 244 244 244 244 242
346 346 346 346 346 346 346 345 344 343 342 342 341 341 341 341 340 340 339 337 336 335 335 334 334 333 329 325 324 330 330 324 325 327 326 331 334 336 338 339 341 339 337 333 324 318 315 306 303 297 287 287 287 281 275 272 273 271 269 268 266 265 263 261 260 258 257 256 254 254 256 255 253 252 253 253 252 251 250 249 247 246 245 244 244 244 243 243
347 347 347 347 347 347 347 345 344 344 344 343 342 342 342 342 342 342 341 339 337 336 337 337 337 336 331 326 327 337 336 329 332 337 338 341 341 344 344 341 343 340 335 333 329 331 329 315 308 300 289 290 287 280 280 280 278 274 273 271 269 268 266 262 260 258 257 256 255 255 257 255 252 252 253 254 252 250 250 249 247 245 244 244 243 243 243 242
347 347 347 347 347 347 347 346 345 344 344 343 343 342 342 343 343 343 343 341 340 339 338 338 338 336 333 333 337 340 338 336 340 343 345 346 345 344 339 335 339 339 334 330 328 331 333 325 314 307 300 295 286 280 281 281 277 274 272 271 271 271 269 265 263 259 256 256 254 253 256 256 253 252 252 252 251 249 248 247 247 246 244 244 243 242 242 241
347 346 346 346 346 347 346 346 345 345 344 344 343 343 343 343 344 344 344 342 340 340 339 338 339 338 333 333 340 343 345 350 353 348 348 347 344 343 340 336 333 333 334 329 322 322 325 323 316 313 310 303 295 287 281 278 275 274 273 270 270 270 269 269 270 265 258 254 249 248 255 258 257 257 255 254 252 248 247 246 246 245 244 243 242 241 241 241
346 346 345 345 346 346 346 346 345 345 345 344 343 343 342 343 344 345 344 342 341 340 340 339 339 341 339 335 337 345 351 357 357 349 345 344 343 342 341 338 331 324 326 329 323 320 322 322 318 315 315 311 307 299 289 283 277 275 276 273 270 270 272 274 276 273 266 257 247 245 254 259 260 261 259 258 257 250 245 245 244 243 242 241 240 240 240 239
345 345 344 344 345 345 345 345 345 345 345 344 344 343 343 343 344 345 343 341 341 341 342 341 340 340 341 344 341 342 351 353 347 341 339 341 343 342 338 335 331 322 319 322 320 320 319 319 318 313 312 314 314 311 304 296 285 281 280 279 278 275 276 279 276 272 269 261 248 246 254 261 260 262 262 260 262 257 247 245 245 243 241 240 239 239 239 238
344 344 343 343 344 344 344 345 344 345 345 345 344 343 343 343 343 343 341 338 340 341 341 339 339 338 337 343 341 335 341 341 339 341 342 342 341 341 337 333 334 330 326 324 315 314 314 315 319 314 311 311 310 311 307 300 295 293 289 285 284 278 276 279 275 271 270 266 257 252 256 261 261 263 265 261 261 262 253 248 250 247 244 241 239 238 237 237
343 342 342 341 342 343 343 344 344 345 346 345 343 342 342 342 342 342 338 337 339 340 340 336 337 340 339 342 342 337 338 337 340 344 343 340 339 338 335 331 333 328 327 329 320 313 311 315 319 316 316 312 306 304 300 298 298 299 297 292 288 282 280 279 274 267 266 267 264 262 262 263 263 263 263 260 258 261 257 252 250 248 247 244 242 240 238 237
341 341 341 340 340 341 342 343 343 345 346 346 344 342 341 340 341 341 337 337 339 343 345 342 340 340 340 341 341 337 336 335 337 340 347 349 341 336 334 330 333 333 332 337 333 322 315 316 314 310 314 312 307 302 293 293 295 296 296 294 291 288 285 283 277 267 262 264 266 266 267 265 265 263 261 260 258 258 257 254 250 247 246 245 243 241 239 238
340 340 340 339 339 339 341 342 343 344 346 347 346 342 342 343 344 343 340 334 334 342 345 345 344 338 337 340 339 338 339 338 339 341 353 351 341 336 339 335 334 340 339 336 333 329 323 317 311 310 312 310 307 302 297 297 297 297 295 292 291 289 287 286 283 277 270 270 270 269 268 266 265 265 264 263 261 257 256 255 253 249 246 245 243 241 239 237
339 338 339 338 338 338 339 340 342 343 345 347 344 343 348 351 349 345 342 334 329 341 343 342 342 337 340 341 337 343 344 334 333 342 349 346 340 340 347 346 336 337 340 335 332 329 323 315 311 311 313 312 309 305 303 302 300 298 296 293 291 289 288 287 286 284 278 274 274 272 271 269 268 268 267 265 263 259 257 255 254 251 247 245 243 241 240 237
339 338 338 338 337 337 338 339 341 342 344 344 342 345 351 352 348 343 340 334 330 333 335 338 338 335 341 339 335 344 340 331 325 342 349 346 344 344 347 345 339 341 342 337 335 331 323 319 320 318 316 315 312 307 304 303 302 300 297 294 292 292 292 290 288 287 284 278 278 278 275 273 272 271 269 266 264 262 259 257 255 252 249 246 242 241 240 237
340 338 338 337 337 336 337 340 340 342 343 343 346 350 350 348 347 343 339 335 333 329 333 340 338 336 343 341 336 335 334 335 334 341 349 348 346 346 343 342 342 343 341 340 339 334 328 326 327 325 321 318 315 312 309 306 305 302 298 295 294 296 296 293 293 292 290 286 284 283 280 277 275 273 272 269 267 266 262 259 257 254 251 247 243 240 238 237
340 338 338 337 336 335 336 337 337 339 341 342 350 354 349 346 348 346 340 337 337 335 340 346 340 337 343 338 327 324 333 337 326 334 347 349 347 348 346 348 349 344 342 345 340 332 329 330 330 327 324 321 319 317 315 312 309 306 303 300 297 299 299 296 298 297 293 289 286 287 283 279 276 274 273 271 270 270 268 264 260 256 252 248 244 240 236 234
340 338 338 337 337 336 334 335 337 339 340 341 348 351 348 347 349 349 345 342 343 344 346 349 348 341 336 331 317 315 327 331 327 333 345 350 351 352 351 350 347 344 345 345 341 336 335 335 333 330 326 324 323 321 321 320 317 312 309 305 303 304 303 300 301 300 296 292 291 292 289 284 281 277 275 276 274 273 271 267 263 260 255 249 243 239 235 232
340 339 339 338 337 336 335 337 340 339 339 344 348 347 347 347 349 352 349 344 348 351 347 347 348 343 336 330 320 311 308 312 325 327 338 350 355 355 354 351 346 345 346 345 343 343 339 336 336 334 329 328 328 328 328 326 319 314 314 311 307 307 305 302 302 300 295 294 295 294 290 289 286 280 280 281 277 277 276 270 268 266 259 250 242 237 234 232
340 339 340 339 338 338 337 338 339 340 341 345 346 345 346 347 349 353 348 346 355 351 346 345 345 346 341 330 322 318 313 312 315 315 323 337 347 349 347 351 350 344 344 344 342 344 339 336 337 335 331 332 333 331 330 328 321 316 319 315 309 307 305 302 301 297 294 296 295 290 287 288 288 285 285 283 280 284 283 275 274 270 261 251 241 235 233 230
339 339 339 339 338 337 337 336 337 343 346 344 343 343 345 346 348 352 347 347 356 350 346 348 346 346 340 328 323 325 320 315 313 318 318 318 338 346 340 349 351 341 342 344 339 344 346 342 342 339 337 338 338 335 331 329 323 319 321 317 312 309 305 302 300 296 297 299 296 293 291 289 288 291 292 288 286 291 289 280 279 273 262 255 241 232 232 230
338 338 339 339 338 335 335 334 335 341 344 343 343 343 345 346 347 348 344 342 348 348 347 349 347 348 346 339 336 333 319 310 313 319 313 300 327 341 335 343 347 340 343 345 338 344 351 351 348 344 343 342 342 341 336 333 328 325 325 320 316 312 305 302 299 297 299 295 293 298 301 298 295 298 301 297 294 298 300 295 292 283 266 256 242 232 231 231
337 337 339 340 339 337 333 331 334 340 342 343 343 343 345 349 346 343 344 345 348 348 346 348 347 350 353 347 341 339 325 308 308 315 313 297 317 333 333 340 347 344 344 346 341 342 351 357 354 349 350 346 343 343 340 338 335 334 334 330 325 320 312 305 299 300 299 292 296 306 311 308 301 301 306 307 303 298 299 304 306 299 275 255 244 234 232 231
337 336 339 340 340 339 336 335 340 341 341 341 342 343 344 345 342 344 350 348 344 346 346 345 344 348 352 347 342 342 331 314 309 315 312 299 315 334 339 344 350 348 348 351 348 343 348 356 356 358 357 349 346 346 345 346 345 344 344 340 336 332 327 320 309 304 297 295 304 312 315 309 296 298 307 310 310 304 298 299 302 301 287 265 250 240 237 235
336 335 337 338 338 339 337 338 339 339 340 341 341 343 342 340 341 347 351 346 339 346 346 339 340 346 347 344 343 343 334 321 311 310 305 298 308 332 345 348 350 350 352 351 348 345 348 353 355 359 1 355 352 352 353 354 353 351 349 346 344 342 343 340 329 315 300 298 307 312 313 305 292 299 310 311 314 314 305 298 295 292 285 273 261 249 243 241
335 334 335 336 337 338 337 337 337 338 341 341 341 344 340 339 346 345 346 351 348 344 341 336 339 345 345 345 347 343 336 326 315 311 306 296 295 317 344 352 352 350 347 344 345 347 348 353 356 353 356 357 355 358 359 354 352 352 352 350 346 345 345 341 334 327 312 305 311 314 310 301 297 308 315 314 314 315 314 308 299 295 289 279 270 259 250 247
334 332 334 336 334 335 336 337 339 341 340 338 339 340 335 338 349 347 344 350 349 341 338 337 339 343 347 356 356 348 341 331 321 312 303 296 295 310 327 342 350 349 344 344 349 348 343 347 354 351 351 354 356 1 358 350 350 354 353 350 347 346 344 337 334 332 321 316 318 318 314 306 310 318 318 316 314 310 316 320 311 301 298 291 282 270 258 252
333 331 334 335 332 332 335 336 339 341 340 336 334 334 335 340 345 346 344 343 342 340 336 336 341 345 349 356 356 354 350 337 328 317 304 301 306 314 320 330 342 345 344 346 349 347 343 344 350 350 349 350 354 358 355 353 355 354 353 353 349 342 334 328 328 321 313 314 320 322 319 312 312 319 324 324 319 311 309 313 310 301 297 292 285 278 268 260
333 332 332 332 332 335 337 337 339 341 340 338 336 339 342 342 342 344 342 339 339 338 336 338 348 349 346 349 351 353 352 341 335 328 310 306 306 309 319 328 336 340 341 341 341 344 343 341 344 348 350 354 355 354 356 359 357 354 356 356 347 341 337 332 329 323 314 314 323 324 320 320 319 324 332 331 327 321 312 308 305 299 295 290 283 279 274 268
334 332 327 328 335 340 340 338 338 339 339 337 336 341 343 341 343 344 340 338 338 337 338 342 349 346 345 347 347 349 349 343 342 337 321 310 300 295 307 322 335 337 334 333 334 339 338 335 340 350 355 356 356 356 360 0 358 359 359 353 349 351 356 352 341 338 336 328 330 331 326 330 334 329 332 333 330 327 320 310 303 297 293 289 283 280 277 272
334 329 323 327 335 338 338 338 337 338 339 335 331 339 343 343 347 345 341 341 338 336 340 344 347 346 346 347 345 347 348 344 342 339 329 319 302 294 301 311 327 333 331 331 331 332 332 332 339 354 358 354 349 350 357 360 4 8 4 357 359 360 357 353 347 345 343 335 336 337 331 335 342 333 332 335 332 328 322 313 305 299 293 287 282 279 278 274
331 328 326 334 338 335 335 336 337 338 336 334 335 340 342 342 347 347 343 342 338 338 341 342 343 345 344 344 345 348 349 344 341 338 335 331 314 305 307 304 315 326 326 327 328 328 330 330 334 346 355 353 342 342 352 358 4 8 9 8 7 1 351 348 347 344 339 336 336 336 333 336 340 334 332 334 332 327 322 316 308 301 294 287 281 276 274 273
329 328 332 340 338 335 334 333 335 337 334 336 339 338 338 339 344 346 345 343 338 341 345 341 340 341 341 342 345 348 347 344 342 337 334 336 324 314 311 305 312 321 319 320 325 330 334 328 327 335 342 345 340 342 353 356 358 2 7 9 7 2 353 347 346 343 339 337 333 329 329 332 332 329 330 330 327 324 320 317 311 303 297 290 283 276 270 267
327 328 332 337 336 335 335 332 335 337 336 341 342 338 338 337 336 338 341 339 335 338 341 338 338 340 339 340 344 347 346 343 343 339 337 341 334 323 314 308 313 315 314 320 327 333 336 327 325 329 331 334 338 342 352 360 2 1 3 5 3 1 357 351 349 349 344 336 330 327 328 331 331 330 331 328 322 321 320 317 313 307 301 295 287 278 270 263
324 326 331 336 337 338 336 333 337 340 339 340 338 337 339 335 332 335 337 334 334 338 335 331 337 340 339 341 342 344 344 341 341 342 340 338 335 331 322 313 311 308 309 320 326 329 331 325 323 326 327 331 341 349 352 0 4 2 3 1 357 359 358 351 344 343 340 332 329 331 330 330 334 338 337 331 324 324 322 317 315 309 303 299 292 283 273 264
324 326 330 338 340 337 333 334 339 340 339 338 336 337 339 336 334 336 336 336 338 340 337 335 339 338 337 341 341 340 344 341 339 342 340 336 335 334 328 319 312 306 307 316 321 325 328 326 325 329 333 336 340 342 345 347 349 353 358 356 353 356 355 348 340 337 336 337 338 335 331 331 336 341 340 334 329 327 324 322 318 311 306 300 295 289 278 266
325 323 325 335 339 335 332 334 337 337 337 337 336 337 338 337 336 334 333 336 336 336 336 335 337 337 336 338 337 338 344 344 339 339 338 336 335 332 327 325 317 306 303 311 317 319 318 320 325 331 338 338 331 333 334 336 341 345 351 352 352 353 351 346 341 338 337 344 343 335 331 333 336 339 339 337 334 330 327 327 323 317 312 304 295 292 283 270
324 323 324 330 333 333 333 334 334 334 334 336 336 337 337 336 337 335 331 329 328 331 332 329 333 339 337 334 335 338 341 339 335 336 336 335 335 332 328 326 320 310 302 304 309 310 306 310 318 326 332 333 331 331 330 333 338 342 346 349 350 353 352 348 344 341 340 341 339 333 331 333 334 336 337 339 338 334 330 330 326 321 318 310 298 293 288 276
324 327 328 329 329 329 331 334 335 335 335 335 334 337 338 336 335 336 334 330 328 329 326 323 330 336 333 333 338 339 337 335 334 337 338 336 337 336 331 326 321 316 307 301 304 306 301 305 313 314 314 317 318 319 321 328 336 341 345 347 347 351 352 349 346 344 339 335 334 335 335 333 334 337 338 340 340 336 333 331 328 323 321 317 307 296 292 283
322 326 327 328 328 327 330 334 335 333 333 334 334 335 338 336 334 335 335 333 332 330 326 326 333 333 331 336 340 338 335 335 336 337 340 340 339 338 334 330 326 325 317 307 306 309 301 302 310 308 304 308 311 311 315 325 336 343 347 346 345 348 351 350 347 343 339 336 335 338 337 334 335 338 338 338 338 336 334 332 328 324 322 320 312 300 297 290
323 325 326 329 328 325 328 331 331 330 329 332 336 336 337 337 336 335 333 330 330 328 326 332 335 330 331 336 336 335 336 337 337 339 341 342 341 341 341 337 333 335 330 317 311 310 301 300 308 310 309 312 312 308 313 326 340 347 348 346 345 347 348 348 345 342 341 338 335 336 336 334 337 339 337 336 336 334 331 330 329 328 325 321 313 306 304 299
326 325 326 330 327 322 324 326 326 325 322 325 333 337 337 336 336 335 333 331 329 328 328 330 330 329 332 333 329 331 336 337 338 339 340 342 342 344 347 344 337 338 335 322 315 312 302 303 312 313 311 314 317 313 314 330 344 346 345 346 345 344 344 343 342 342 340 336 334 335 335 336 340 341 338 336 334 331 329 330 331 332 330 324 318 312 306 299
327 325 325 326 325 321 320 320 321 323 321 323 333 338 335 333 334 334 333 330 327 327 328 329 329 330 331 328 327 332 337 337 336 335 336 339 342 344 348 347 340 339 337 328 323 316 307 309 316 314 311 317 325 317 314 326 338 339 343 347 346 343 342 341 341 342 341 338 337 337 337 339 344 344 341 338 335 333 333 333 334 333 330 326 321 315 306 296
323 320 321 322 323 323 320 316 318 323 327 329 334 337 333 331 334 332 330 329 325 323 326 328 330 331 327 325 329 333 335 335 334 335 336 337 339 343 347 347 342 339 338 335 329 320 314 314 315 313 312 316 321 319 320 326 327 334 345 349 348 345 342 339 339 343 341 337 337 340 341 342 345 345 343 342 340 338 337 336 335 333 330 328 325 318 308 296
321 319 318 317 320 323 319 316 317 321 326 329 331 332 330 330 331 330 329 330 326 324 326 326 327 329 327 327 332 333 332 331 330 334 339 337 337 343 345 343 343 342 340 339 332 323 321 317 313 314 311 308 315 323 326 323 324 336 346 349 347 344 341 338 340 342 341 339 341 343 343 343 344 344 343 342 342 341 339 337 336 335 334 332 329 322 312 300